FW8143 Weather Reports


Display with metric or nautical units.
time (UTC)temp
F
wind
direction
speed
MPH
gust
MPH
rain 1hr
in
rain 24hr
in
rain mn
in
humidity
%
barometer
mb
20260505053029 55 253 1.0 3.0 0.00 0.00 0.00 33 1019.5
20260505052530 56 291 1.0 5.0 0.00 0.00 0.00 34 1019.5
20260505052024 56 269 1.0 5.0 0.00 0.00 0.00 34 1019.5
20260505051524 56 284 1.0 4.0 0.00 0.00 0.00 33 1019.4
20260505051025 56 36 2.0 4.0 0.00 0.00 0.00 33 1019.4
20260505050524 56 332 2.0 5.0 0.00 0.00 0.00 33 1019.5
20260505050247 56 346 2.0 5.0 0.00 0.00 0.00 32 1019.6
20260505041522 57 323 5.0 10.0 0.00 0.00 0.00 31 1019.6
20260505041022 57 302 4.0 10.0 0.00 0.00 0.00 30 1019.6
20260505040523 57 300 4.0 10.0 0.00 0.00 0.00 30 1019.6
20260505040023 57 323 5.0 10.0 0.00 0.00 0.00 29 1019.8
20260505035522 57 15 5.0 11.0 0.00 0.00 0.00 29 1019.8
20260505035023 57 333 5.0 11.0 0.00 0.00 0.00 29 1019.8
20260505034523 57 315 4.0 11.0 0.00 0.00 0.00 28 1019.8
20260505034022 57 355 4.0 12.0 0.00 0.00 0.00 28 1019.6
20260505033520 57 315 4.0 12.0 0.00 0.00 0.00 27 1019.6
20260505033021 57 331 5.0 12.0 0.00 0.00 0.00 27 1019.5
20260505032518 58 303 6.0 14.0 0.00 0.00 0.00 27 1019.5
20260505032019 58 320 6.0 14.0 0.00 0.00 0.00 27 1019.4
20260505031740 58 317 5.0 11.0 0.00 0.00 0.00 26 1019.2
20260505031505 58 300 5.0 11.0 0.00 0.00 0.00 26 1019.1
20260505030519 58 310 6.0 11.0 0.00 0.00 0.00 25 1019.1
20260505030018 58 310 6.0 15.0 0.00 0.00 0.00 25 1019.0
20260505025519 58 315 6.0 18.0 0.00 0.00 0.00 24 1019.0
20260505025018 59 315 6.0 18.0 0.00 0.00 0.00 24 1019.0
20260505024518 59 313 6.0 13.0 0.00 0.00 0.00 24 1018.9
20260505024020 59 309 6.0 14.0 0.00 0.00 0.00 24 1018.7
20260505023517 59 293 6.0 14.0 0.00 0.00 0.00 24 1018.9
20260505023017 59 325 5.0 11.0 0.00 0.00 0.00 23 1018.7
20260505022512 59 281 6.0 13.0 0.00 0.00 0.00 23 1018.7
20260505022005 60 271 6.0 13.0 0.00 0.00 0.00 23 1018.7
20260505021723 60 338 7.0 18.0 0.00 0.00 0.00 22 1018.7
20260505020953 60 289 7.0 18.0 0.00 0.00 0.00 22 1018.7
20260505020447 60 315 8.0 22.0 0.00 0.00 0.00 22 1018.6
20260505015942 60 296 9.0 22.0 0.00 0.00 0.00 22 1018.7
20260505015436 60 336 7.0 16.0 0.00 0.00 0.00 21 1018.6
20260505014929 60 312 6.0 16.0 0.00 0.00 0.00 21 1018.6
20260505014423 61 273 9.0 16.0 0.00 0.00 0.00 21 1018.5
20260505013917 61 269 9.0 17.0 0.00 0.00 0.00 21 1018.4
20260505013411 61 261 9.0 17.0 0.00 0.00 0.00 21 1018.2
20260505013129 61 247 9.0 17.0 0.00 0.00 0.00 20 1018.2
20260505012359 61 263 8.0 18.0 0.00 0.00 0.00 20 1018.1
20260505011853 61 293 8.0 18.0 0.00 0.00 0.00 20 1018.2
20260505011347 62 256 7.0 16.0 0.00 0.00 0.00 20 1018.1
20260505010841 62 254 8.0 23.0 0.00 0.00 0.00 20 1018.2
20260505010335 62 285 10.0 23.0 0.00 0.00 0.00 20 1018.1
20260505005829 62 285 12.0 22.0 0.00 0.00 0.00 20 1018.2
20260505005323 62 208 11.0 22.0 0.00 0.00 0.00 20 1018.4
20260505004818 62 254 9.0 23.0 0.00 0.00 0.00 19 1018.4
20260505004311 62 294 10.0 23.0 0.00 0.00 0.00 19 1018.4
20260505004029 62 238 9.0 20.0 0.00 0.00 0.00 20 1018.5
20260505003754 62 293 8.0 20.0 0.00 0.00 0.00 20 1018.5
20260505002753 62 283 8.0 16.0 0.00 0.00 0.00 20 1018.5
20260505002248 63 235 9.0 16.0 0.00 0.00 0.00 20 1018.5
20260505001742 63 309 10.0 20.0 0.00 0.00 0.00 19 1018.4
20260505001236 63 275 9.0 24.0 0.00 0.00 0.00 20 1018.5
20260505000729 63 265 7.0 24.0 0.00 0.00 0.00 20 1018.6
20260505000448 63 265 7.0 16.0 0.00 0.00 0.00 21 1018.6
20260504235717 63 186 9.0 20.0 0.00 0.00 0.00 20 1018.6
20260504235211 63 344 11.0 23.0 0.00 0.00 0.00 20 1018.7
20260504234705 64 256 9.0 23.0 0.00 0.00 0.00 20 1018.7
20260504234428 64 321 7.0 17.0 0.00 0.00 0.00 21 1018.7
20260504233653 64 266 9.0 21.0 0.00 0.00 0.00 21 1018.7
20260504233147 64 255 10.0 23.0 0.00 0.00 0.00 21 1018.6
20260504232641 64 262 8.0 23.0 0.00 0.00 0.00 21 1018.7
20260504232353 64 256 9.0 18.0 0.00 0.00 0.00 21 1018.6
20260504231629 64 250 8.0 16.0 0.00 0.00 0.00 21 1018.6
20260504231123 64 238 6.0 14.0 0.00 0.00 0.00 21 1018.6
20260504230842 64 355 8.0 17.0 0.00 0.00 0.00 21 1018.9
20260504230111 64 254 12.0 24.0 0.00 0.00 0.00 21 1019.1
20260504230047 64 325 13.0 28.0 0.00 0.00 0.00 21 1019.1
20260504225059 64 243 11.0 28.0 0.00 0.00 0.00 21 1019.1
20260504224553 64 313 9.0 23.0 0.00 0.00 0.00 21 1019.1
20260504224048 63 328 7.0 23.0 0.00 0.00 0.00 21 1019.0
20260504223541 63 243 9.0 23.0 0.00 0.00 0.00 20 1019.1
20260504223035 63 84 11.0 23.0 0.00 0.00 0.00 20 1019.1
20260504222530 63 238 11.0 19.0 0.00 0.00 0.00 20 1019.2
20260504222023 64 324 11.0 21.0 0.00 0.00 0.00 19 1019.4
20260504221517 64 306 9.0 21.0 0.00 0.00 0.00 19 1019.2
20260504221237 64 263 10.0 24.0 0.00 0.00 0.00 19 1019.4
20260504220506 64 299 11.0 24.0 0.00 0.00 0.00 17 1019.4
20260504220221 64 344 10.0 25.0 0.00 0.00 0.00 17 1019.5
20260504215453 65 200 12.0 25.0 0.00 0.00 0.00 17 1019.5
20260504214947 65 250 12.0 23.0 0.00 0.00 0.00 17 1019.5
20260504214441 65 317 10.0 23.0 0.00 0.00 0.00 17 1019.5
20260504213935 66 315 9.0 23.0 0.00 0.00 0.00 16 1019.5
20260504213430 66 307 10.0 21.0 0.00 0.00 0.00 15 1019.6
20260504212923 66 320 9.0 19.0 0.00 0.00 0.00 15 1019.8
20260504212419 66 229 9.0 19.0 0.00 0.00 0.00 17 1019.8
20260504211920 65 261 10.0 19.0 0.00 0.00 0.00 17 1019.9
20260504211421 65 278 11.0 23.0 0.00 0.00 0.00 16 1019.9
20260504210919 65 234 13.0 23.0 0.00 0.00 0.00 17 1020.0
20260504210644 65 227 10.0 23.0 0.00 0.00 0.00 17 1020.0
20260504205922 65 268 10.0 25.0 0.00 0.00 0.00 19 1020.3
20260504205420 65 250 10.0 25.0 0.00 0.00 0.00 19 1020.4
20260504204920 66 239 9.0 19.0 0.00 0.00 0.00 19 1020.4
20260504204644 66 286 10.0 19.0 0.00 0.00 0.00 20 1020.5
20260504203920 65 209 11.0 23.0 0.00 0.00 0.00 21 1020.6
20260504203421 65 281 12.0 23.0 0.00 0.00 0.00 20 1020.5
20260504202920 65 269 11.0 22.0 0.00 0.00 0.00 20 1020.6
20260504202420 65 229 11.0 22.0 0.00 0.00 0.00 20 1020.6
20260504201919 66 290 10.0 20.0 0.00 0.00 0.00 20 1020.6
20260504201636 65 269 11.0 24.0 0.00 0.00 0.00 21 1020.6
20260504201402 65 221 10.0 24.0 0.00 0.00 0.00 21 1020.6
20260504200639 66 225 11.0 23.0 0.00 0.00 0.00 21 1020.8
20260504195914 65 225 12.0 25.0 0.00 0.00 0.00 22 1020.8
20260504195415 65 226 12.0 25.0 0.00 0.00 0.00 21 1020.6
20260504194914 65 240 12.0 25.0 0.00 0.00 0.00 21 1020.9
20260504194413 66 236 11.0 25.0 0.00 0.00 0.00 22 1021.0
20260504193914 65 225 11.0 20.0 0.00 0.00 0.00 22 1021.0
20260504193415 65 247 11.0 23.0 0.00 0.00 0.00 22 1021.1
20260504193143 66 260 10.0 23.0 0.00 0.00 0.00 22 1021.1
20260504192414 66 281 10.0 24.0 0.00 0.00 0.00 22 1021.0
20260504192357 66 231 9.0 24.0 0.00 0.00 0.00 22 1021.1
20260504191413 65 238 10.0 21.0 0.00 0.00 0.00 23 1020.9
20260504190914 65 270 11.0 24.0 0.00 0.00 0.00 23 1021.3
20260504190413 65 259 10.0 24.0 0.00 0.00 0.00 24 1021.0
20260504185914 65 227 10.0 18.0 0.00 0.00 0.00 24 1021.3
20260504185414 64 272 9.0 20.0 0.00 0.00 0.00 24 1021.3
20260504184914 64 258 10.0 21.0 0.00 0.00 0.00 26 1021.1
20260504184637 64 235 11.0 21.0 0.00 0.00 0.00 25 1021.4
20260504183913 64 246 11.0 19.0 0.00 0.00 0.00 25 1021.4
20260504183414 64 255 11.0 21.0 0.00 0.00 0.00 24 1021.4
20260504182913 64 196 10.0 21.0 0.00 0.00 0.00 25 1021.4
20260504182413 64 219 10.0 22.0 0.00 0.00 0.00 25 1021.5
20260504181914 64 262 11.0 23.0 0.00 0.00 0.00 25 1021.6
20260504181414 64 198 9.0 23.0 0.00 0.00 0.00 25 1021.6
20260504180914 64 229 7.0 18.0 0.00 0.00 0.00 27 1021.5
20260504180412 63 254 9.0 20.0 0.00 0.00 0.00 29 1021.8
20260504175913 63 288 8.0 20.0 0.00 0.00 0.00 29 1022.0
20260504175404 63 233 7.0 15.0 0.00 0.00 0.00 29 1022.0
20260504174904 62 227 9.0 21.0 0.00 0.00 0.00 29 1022.1
20260504174351 62 245 9.0 25.0 0.00 0.00 0.00 30 1022.1
20260504173852 62 295 7.0 25.0 0.00 0.00 0.00 33 1022.1
20260504173613 62 231 4.0 14.0 0.00 0.00 0.00 36 1022.3
20260504172852 61 250 4.0 12.0 0.00 0.00 0.00 37 1022.1
20260504172349 61 266 5.0 12.0 0.00 0.00 0.00 38 1022.1
20260504171850 61 242 6.0 15.0 0.00 0.00 0.00 38 1022.3
20260504171350 61 113 6.0 15.0 0.00 0.00 0.00 38 1022.3
20260504170850 61 308 7.0 18.0 0.00 0.00 0.00 38 1022.3
20260504170349 60 247 7.0 18.0 0.00 0.00 0.00 38 1022.3
20260504160317 56 277 4.0 14.0 0.00 0.00 0.00 51 1022.8
20260504150710 52 232 2.0 5.0 0.00 0.00 0.00 65 1023.4
20260504150203 52 240 1.0 5.0 0.00 0.00 0.00 66 1023.4
20260504141102 49 238 2.0 6.0 0.00 0.00 0.00 71 1023.3
20260504140556 49 244 1.0 6.0 0.00 0.00 0.00 71 1023.4
20260504130515 47 178 0.0 4.0 0.00 0.00 0.00 72 1022.9
20260504110433 48 101 3.0 6.0 0.00 0.00 0.00 67 1022.0
20260504081917 50 121 2.0 6.0 0.00 0.00 0.00 63 1022.8
20260504081416 51 93 1.0 4.0 0.00 0.00 0.00 63 1022.8
20260504080916 51 211 0.0 3.0 0.00 0.00 0.00 63 1023.2
20260504080644 50 71 0.0 0.0 0.00 0.00 0.00 59 1023.2
20260504070334 49 105 1.0 4.0 0.00 0.00 0.00 60 1023.7
20260504070318 49 85 3.0 7.0 0.00 0.00 0.00 60 1023.7
20260504060230 49 77 1.0 4.0 0.00 0.00 0.00 57 1023.4